contact:dominique.lefevre@mio.osupytheas.fr, maurice.libes@osupytheas.fr
Project:EMSO Ligure-ouest http://www.emso-fr.org/EMSO-France
Sensor Aquadopp, line 13 Serial AQD14315 
DOI : "https://doi.org/10.17882/74513; https://doi.org/10.17882/83244" 
Title:EMSO Ligure Ouest : Data ligne ALBATROSS capteur AQUADOPP - deploiement 2021
Id,Date,Profondeur,Latitude,Longitude,X_East,Y_North,Z_Up,Amplitude_X,Amplitude_Y,Amplitude_Z,Batterie,SoundSpeed,Heading,Pitch,Roll,Pressure,Temperature,Speed,Direction
, , m, degrees North, degrees East, m.s-1, m.s-1,m.s-1, 1, 1, 1, Volt, m.s-1, degree, degree, degree, dbar, degree_C, m.s-1, degree
09,2022-07-09T23:30:00,2000.0,42.79,6.0312,-0.009,0.032,0.0,76.0,72.0,75.0,13.3,1504.7,291.2,-0.9,1.0,1992.595,13.28,0.033,344.3
09,2022-07-10T00:00:00,2000.0,42.79,6.0312,-0.017,0.024,-0.011,76.0,74.0,75.0,13.3,1504.7,300.4,-1.0,1.0,1992.608,13.28,0.029,324.7
09,2022-07-10T00:30:00,2000.0,42.79,6.0312,-0.023,0.03,-0.016,73.0,70.0,74.0,13.3,1504.7,296.9,-1.3,0.9,1992.594,13.28,0.037,322.5
09,2022-07-10T01:00:00,2000.0,42.79,6.0312,0.004,0.015,0.01,75.0,71.0,77.0,13.3,1504.7,307.9,-1.1,0.9,1992.615,13.28,0.015,14.9
09,2022-07-10T02:00:00,2000.0,42.79,6.0312,-0.035,0.013,0.001,73.0,70.0,74.0,13.3,1504.7,286.2,-1.0,1.0,1992.658,13.28,0.037,290.4
09,2022-07-10T02:30:00,2000.0,42.79,6.0312,-0.022,0.03,0.007,73.0,71.0,73.0,13.3,1504.7,305.8,-1.0,0.9,1992.618,13.28,0.037,323.7
09,2022-07-10T03:00:00,2000.0,42.79,6.0312,-0.03,0.015,0.016,74.0,70.0,73.0,13.3,1504.7,298.8,-1.2,1.0,1992.668,13.28,0.033,296.6
09,2022-07-10T03:30:00,2000.0,42.79,6.0312,-0.022,0.019,0.009,75.0,70.0,75.0,13.3,1504.7,304.7,-1.0,1.0,1992.641,13.28,0.029,310.8
09,2022-07-10T04:00:00,2000.0,42.79,6.0312,-0.04,0.048,-0.014,76.0,72.0,75.0,13.3,1504.7,316.9,-1.2,0.9,1992.657,13.28,0.062,320.2
09,2022-07-10T04:30:00,2000.0,42.79,6.0312,-0.047,0.018,0.0,75.0,72.0,75.0,13.3,1504.7,295.9,-1.0,1.1,1992.643,13.28,0.05,291.0
09,2022-07-10T05:00:00,2000.0,42.79,6.0312,-0.055,0.009,-0.02,76.0,70.0,75.0,13.3,1504.7,284.9,-1.1,1.0,1992.629,13.28,0.055,279.3
09,2022-07-10T05:30:00,2000.0,42.79,6.0312,-0.02,-0.01,-0.002,75.0,71.0,72.0,13.3,1504.7,288.2,-0.9,1.0,1992.643,13.28,0.022,243.4
09,2022-07-10T06:00:00,2000.0,42.79,6.0312,-0.047,0.018,-0.02,75.0,71.0,74.0,13.3,1504.7,287.5,-1.2,1.1,1992.648,13.28,0.05,291.0
09,2022-07-10T06:30:00,2000.0,42.79,6.0312,-0.058,0.035,-0.033,75.0,71.0,74.0,13.3,1504.7,303.0,-1.1,1.0,1992.552,13.28,0.067,301.1
09,2022-07-10T07:00:00,2000.0,42.79,6.0312,-0.048,0.007,0.008,74.0,72.0,75.0,13.3,1504.7,296.4,-0.9,0.9,1992.553,13.28,0.048,278.3
09,2022-07-10T07:30:00,2000.0,42.79,6.0312,-0.059,0.015,0.0,75.0,74.0,74.0,13.3,1504.7,304.5,-0.9,0.9,1992.559,13.28,0.06,284.3
09,2022-07-10T08:00:00,2000.0,42.79,6.0312,-0.049,0.024,-0.01,72.0,71.0,72.0,13.3,1504.7,303.5,-1.0,0.9,1992.533,13.28,0.054,296.1
09,2022-07-10T08:30:00,2000.0,42.79,6.0312,-0.033,0.011,-0.028,75.0,71.0,73.0,13.3,1504.7,291.9,-1.2,0.9,1992.553,13.28,0.034,288.4
09,2022-07-10T09:00:00,2000.0,42.79,6.0312,-0.063,0.022,-0.009,74.0,68.0,73.0,13.3,1504.7,291.3,-0.8,1.0,1992.531,13.28,0.066,289.2
09,2022-07-10T09:30:00,2000.0,42.79,6.0312,-0.055,0.034,-0.014,73.0,68.0,73.0,13.3,1504.7,293.8,-1.0,0.9,1992.535,13.28,0.064,301.7
09,2022-07-10T10:00:00,2000.0,42.79,6.0312,-0.06,0.042,0.017,71.0,66.0,71.0,13.3,1504.7,289.2,-0.7,1.1,1992.506,13.28,0.073,305.0
09,2022-07-10T10:30:00,2000.0,42.79,6.0312,-0.05,0.028,-0.018,71.0,69.0,70.0,13.3,1504.7,293.4,-0.9,1.1,1992.451,13.28,0.057,299.3
09,2022-07-10T11:00:00,2000.0,42.79,6.0312,-0.042,0.037,-0.009,72.0,69.0,70.0,13.3,1504.7,291.1,-0.8,1.0,1992.481,13.28,0.055,311.4
09,2022-07-10T11:30:00,2000.0,42.79,6.0312,-0.034,0.054,-0.033,71.0,67.0,71.0,13.3,1504.7,294.1,-1.0,0.9,1992.486,13.28,0.063,327.8
09,2022-07-10T12:00:00,2000.0,42.79,6.0312,-0.044,0.045,-0.019,73.0,68.0,74.0,13.3,1504.7,293.2,-1.3,0.9,1992.523,13.28,0.062,315.6
09,2022-07-10T12:30:00,2000.0,42.79,6.0312,-0.035,0.045,-0.012,72.0,69.0,71.0,13.3,1504.7,291.1,-0.8,1.0,1992.521,13.28,0.057,322.1
09,2022-07-10T13:00:00,2000.0,42.79,6.0312,-0.031,0.025,0.015,71.0,69.0,73.0,13.3,1504.7,289.7,-1.2,0.8,1992.534,13.28,0.039,308.9
09,2022-07-10T13:30:00,2000.0,42.79,6.0312,-0.053,0.037,-0.03,71.0,67.0,70.0,13.3,1504.7,280.5,-1.3,1.0,1992.596,13.28,0.064,304.9
09,2022-07-10T14:00:00,2000.0,42.79,6.0312,-0.035,0.041,0.007,73.0,70.0,71.0,13.3,1504.7,296.7,-0.9,0.9,1992.587,13.28,0.053,319.5
09,2022-07-10T15:00:00,2000.0,42.79,6.0312,-0.028,0.031,0.021,72.0,69.0,72.0,13.3,1504.7,290.4,-0.6,1.0,1992.61,13.28,0.041,317.9
09,2022-07-10T15:30:00,2000.0,42.79,6.0312,-0.033,0.027,-0.013,73.0,71.0,70.0,13.3,1504.7,299.3,-0.6,1.0,1992.648,13.28,0.042,309.3
09,2022-07-10T16:00:00,2000.0,42.79,6.0312,-0.004,0.036,-0.014,71.0,69.0,70.0,13.3,1504.7,290.0,-1.3,0.9,1992.683,13.28,0.036,353.7
09,2022-07-10T16:30:00,2000.0,42.79,6.0312,-0.026,0.046,0.0,70.0,68.0,71.0,13.3,1504.7,293.3,-0.8,1.0,1992.638,13.28,0.052,330.5
09,2022-07-10T17:00:00,2000.0,42.79,6.0312,-0.014,0.032,0.015,70.0,70.0,70.0,13.3,1504.7,303.3,-1.2,1.0,1992.638,13.28,0.034,336.4
09,2022-07-10T17:30:00,2000.0,42.79,6.0312,-0.013,0.039,-0.006,72.0,67.0,74.0,13.3,1504.7,300.8,-1.1,0.9,1992.698,13.28,0.041,341.6
09,2022-07-10T18:00:00,2000.0,42.79,6.0312,-0.024,0.026,-0.011,73.0,70.0,71.0,13.3,1504.7,293.4,-1.5,0.9,1992.642,13.28,0.035,317.3
09,2022-07-10T18:30:00,2000.0,42.79,6.0312,-0.026,0.045,-0.012,74.0,67.0,72.0,13.3,1504.7,288.7,-1.3,0.9,1992.656,13.28,0.051,330.0
09,2022-07-10T19:00:00,2000.0,42.79,6.0312,-0.033,0.026,0.012,74.0,71.0,72.0,13.3,1504.7,292.0,-0.8,1.1,1992.602,13.28,0.042,308.2
09,2022-07-10T19:30:00,2000.0,42.79,6.0312,-0.02,0.035,-0.032,70.0,69.0,69.0,13.3,1504.7,295.7,-1.0,1.0,1992.63,13.28,0.04,330.3
09,2022-07-10T20:00:00,2000.0,42.79,6.0312,-0.038,0.023,-0.034,73.0,70.0,70.0,13.3,1504.7,297.6,-1.1,1.0,1992.597,13.28,0.044,301.2
09,2022-07-10T20:30:00,2000.0,42.79,6.0312,-0.022,0.018,0.0,71.0,68.0,71.0,13.3,1504.7,294.8,-1.0,1.0,1992.607,13.28,0.028,309.3
09,2022-07-10T21:00:00,2000.0,42.79,6.0312,-0.011,0.031,0.025,69.0,67.0,71.0,13.3,1504.7,296.1,-1.0,1.0,1992.584,13.28,0.032,340.5
09,2022-07-10T21:30:00,2000.0,42.79,6.0312,-0.023,0.009,-0.002,72.0,67.0,72.0,13.3,1504.7,297.9,-1.0,1.0,1992.576,13.28,0.024,291.4
09,2022-07-10T22:00:00,2000.0,42.79,6.0312,-0.039,0.035,-0.013,70.0,68.0,69.0,13.3,1504.7,295.7,-1.0,0.9,1992.578,13.28,0.052,311.9
09,2022-07-10T22:30:00,2000.0,42.79,6.0312,-0.052,0.004,-0.009,71.0,68.0,69.0,13.3,1504.7,294.5,-0.9,1.0,1992.548,13.28,0.052,274.4
09,2022-07-10T23:00:00,2000.0,42.79,6.0312,-0.027,0.002,0.0,73.0,69.0,68.0,13.3,1504.7,289.6,-0.9,1.0,1992.559,13.28,0.027,274.2
